Location: ????????
(55.0559°N, 39.1270°E)
Time: 00:23:54
(UTC+00:00)

NOSS 3-1 (A) - Pass Details

Date: 15 November 2025
Orbit: 621 x 1586 km, 63.4° (Epoch: 02 December)

Event Time Altitude Azimuth Distance (km) Brightness Sun altitude
Exits shadow 01:50:23 64° 190° (S) 863 3.1 -26.2°
Maximum altitude 01:51:05 75° 135° (SE) 829 3.1 -26.1°
Drops below altitude 10° 01:57:09 10° 52° (NE) 2,681 6.5 -25.2°
Sets 02:00:03 0° 51° (NE) 3,789 7.4 -24.8°
